Printer-friendly version
Follow the MPC on Twitter Follow the MPC on Facebook The MPC blog
Minor Planet Center

MPEC 1999-O07 : 1998 MX5

The following Minor Planet Electronic Circular may be linked-to from your own Web pages, but must not otherwise be redistributed electronically.

A form allowing access to any MPEC is at the bottom of this page.


Read MPEC 1999-O06 Read MPEC 1999-O08


M.P.E.C. 1999-O07                                Issued 1999 July 17, 22:01 UT

     The Minor Planet Electronic Circulars contain information on unusual
         minor planets and routine data on comets.  They are published
   on behalf of Commission 20 of the International Astronomical Union by the
          Minor Planet Center, Smithsonian Astrophysical Observatory,
                          Cambridge, MA 02138, U.S.A.

             BMARSDEN@CFA.HARVARD.EDU or GWILLIAMS@CFA.HARVARD.EDU
          URL http://cfa-www.harvard.edu/iau/mpc.html  ISSN 1523-6714

                                   1998 MX5

                           Revision to MPEC 1998-M22

Observations:
     J98M05X 5 1993 07 14.26597 18 22 19.84 -01 14 06.9                      675
     J98M05X 5 1993 07 14.30764 18 22 22.15 -01 11 23.0                      675

Observer details:
675 Palomar Mountain.  Trail located and measured by A. Boattini and G. Forti.
    Trail remeasured by A. Doppler.  1.2-m Schmidt.

First and last observations above in comparison with prediction:
Residuals in seconds of arc (or two decimals in degrees), reference and Delta-T
930714 675 0.28- 0.11-    930714 675 0.28- 0.11-    MPC 33346   +0.060 day

Orbital elements:
1998 MX5
Epoch 1999 Aug. 10.0 TT = JDT 2451400.5                 Williams
M  71.47263              (2000.0)            P               Q
n   0.19778123     Peri.   55.69973     +0.77959573     +0.60323151
a   2.9175121      Node   266.61751     -0.61562337     +0.68873564
e   0.6118164      Incl.    9.70907     -0.11505811     +0.40218771
P   4.98           H   18.1           G   0.15           U   0
Residuals in seconds of arc
930714 675  0.6-  1.4+    980721 540  0.0   0.0     980810 127  0.7+  0.2-
930714 675  0.1-  0.4+    980721 540  0.2+  0.3+    980810 127  0.6+  0.3-
980624 704  0.3-  1.0+    980721 540  0.6+  0.2+    980811 402  0.4+  0.2+
980624 704  0.3-  0.0     980721 557  0.8+  0.0     980811 402  0.3+  0.2+
980624 704  0.6-  1.9-    980721 557  0.8+  0.0     980811 402  0.4+  0.2+
980624 704  0.3-  0.8-    980721 104  0.8+  0.1-    980811 108  1.1+  0.2+
980625 596  0.9-  0.3+    980721 104  0.8+  0.0     980811 108  0.5+  0.3+
980625 596  0.8-  0.7+    980721 104  0.8+  0.1+    980811 108  1.0+  0.2+
980625 596  0.3-  0.3+    980721 104  0.3+  0.1-    980811 143  0.2-  0.2-
980625 046  0.2-  0.2-    980721 628  0.5+  0.5-    980811 143  0.4-  0.2-
980625 046  0.4-  0.6-    980721 628  0.5+  0.4-    980811 143  0.3-  0.1-
980625 046  0.2-  0.4-    980721 628  0.3+  0.1+    980814 628  0.8+  0.5+
980625 046  0.2-  0.2-    980721 127  0.8+  0.8-    980814 587  0.3-  0.3-
980625 046  0.2-  0.2-    980721 127  1.0+  1.1-    980814 587  0.4-  0.2+
980626 734  0.2+  0.1-    980722 127  0.4-  0.1+    980814 628  1.6+  0.3+
980626 734  0.2+  0.3-    980722 636  1.3-  0.5-    980814 628  0.1+  1.0+
980626 734  1.1-  1.0+    980722 636  0.0   0.7+    980815 118  0.2-  0.3+
980626 711  0.2-  0.5-    980722 127  0.2-  0.1-    980815 118  0.1-  0.4+
980626 711  0.4-  0.5-    980722 636  0.4-  0.5-    980815 360  0.3-  0.1+
980626 711  1.0-  0.2+    980724 557  0.6-  0.1-    980815 360  0.4-  0.1+
980626 422  0.1-  0.4-    980724 557  0.4-  0.1-    980815 360  0.3-  0.0
980626 422  0.1-  0.1-    980724 557  0.1+  0.1+    980815 108  1.0-  0.3-
980626 422  0.4-  0.5-    980725 628  0.1+  1.5+    980815 108  0.7-  0.9-
980626 422  0.5-  0.9-    980725 628  0.7-  0.2-    980815 108  0.1-  0.4-
980626 426  0.1+  0.2-    980725 628  0.0   0.2+    980816 046  0.2-  0.1+
980626 426  0.3+  0.3-    980725 628  0.4-  0.5-    980816 046  0.3-  0.1+
980626 426  0.1-  0.0     980725 628  0.8-  0.7-    980816 046  0.3-  0.1+
980628 557  1.2+  0.0     980726 670  0.5-  0.2+    980816 118  0.2-  0.1+
980629 557  1.2+  0.5-    980726 670  0.0   0.2+    980817 118  0.2-  0.6+
980629 426  1.0+  0.3+    980726 670  0.1+  0.4+    980817 557  0.1-  0.2-
980629 426  1.4+  1.0+    980730 628  0.1-  0.2-    980817 557  0.1-  0.4-
980629 426  0.7+  0.4+    980730 127  0.1+  1.2-    980820 118  0.1-  0.1+
980629 108 (3.0+  3.2+)   980730 628  0.2+  0.3-    980820 118  0.2-  0.1+
980629 108 (1.4+  3.1+)   980730 127  0.1-  0.5-    980820 143  0.3-  0.2-
980701 670  0.8+  1.8+    980730 127  1.4+  0.8-    980820 143  1.3-  0.3+
980701 670  0.0   0.9+    980730 108  0.8+  0.8-    980820 143  0.4-  0.6-
980701 670  0.6+  1.2+    980730 108  0.4+  0.9-    980820 587  1.2-  0.3-
980702 402  0.5-  0.2+    980730 108  0.9+  0.5+    980820 587  0.8-  0.2-
980702 402  0.5-  0.1-    980730 628  0.6+  0.2-    980820 587  0.3-  0.6-
980702 402  0.3-  0.0     980730 108 (2.0+  0.0 )   980825 557  0.5-  0.2-
980702 360  0.6-  0.1-    980730 628  0.4+  0.1-    980826 658  0.4-  0.1-
980702 360  0.4-  0.1-    980730 633  0.7+  0.5+    980826 658  0.3-  0.3+
980702 360  0.3-  0.2+    980730 633  0.3+  0.1-    980826 658  0.7-  0.1+
980703 046  0.2+  0.1+    980730 633  0.2-  0.9+    980827 143  0.6+  0.6-
980703 046  0.0   0.0     980731 557  0.2+  0.2-    980827 143  1.9-  0.1+
980703 046  0.3-  0.0     980731 557  0.2+  0.3-    980827 143  1.6-  0.2-
980704 143 (3.9+  1.6-)   980731 557  0.0   0.1+    980829 108  0.7-  0.7-
980704 143  0.3+  0.1-    980731 557  0.2-  0.0     980829 108  0.5-  0.3+
980705 143 (0.0   2.7-)   980802 046  0.5+  0.6-    980829 108  0.6-  0.9-
980705 143  0.0   0.3-    980802 046  0.4-  0.2+    980904 118  0.6+  0.2-
980705 143  0.7-  1.5-    980802 046  0.6+  0.9-    980904 118  0.4+  0.2-
980705 860  0.3+  0.2-    980802 046  0.1+  0.4-    980906 108 (2.9-  1.6-)
980705 860  0.0   0.8+    980803 118  0.7-  0.7-    980906 108  1.3+  0.4+
980705 860 (1.5-  2.8+)   980803 118  0.0   0.4-    980906 108  0.1+  1.4-
980705 426  0.7+  0.3-    980803 670  0.4+  0.7+    980908 402  0.2+  0.4+
980705 426  0.3-  0.2+    980803 670  1.0+  0.1+    980908 402  0.2+  0.1+
980705 426  0.1+  0.2-    980803 118  0.4+  0.3-    980908 402  0.7+  0.6+
980705 402  0.0   0.2+    980803 118  0.2+  0.2-    980923 658  0.2-  0.2-
980705 402  0.1+  0.5+    980804 689 (0.5+  2.1-)   980923 658  0.2-  0.0
980705 402  0.3+  0.7+    980805 628  0.2+  1.3+    980923 658  0.6-  0.0
980708 402  1.1-  0.1-    980805 118  0.1+  0.4+    980924 557  0.3+  0.1+
980708 402  1.3-  0.1+    980805 118  0.2-  0.3+    980924 557  0.1+  0.6+
980708 402  1.1-  0.3-    980805 628  0.9+  0.7+    980924 704  0.6+  0.3-
980708 402  1.0-  0.0     980805 628  0.3-  1.1+    980924 704  0.2+  1.3+
980713 636  0.5+  0.2+    980805 046  0.3-  0.1+    980924 704  0.1-  0.3-
980713 636  0.8+  0.9+    980805 046  0.4-  0.2+    980924 704  1.0-  0.9-
980714 557  0.5-  0.4-    980805 046  0.1-  0.6+    980927 071  0.1-  0.8+
980714 557  0.6-  0.4+    980805 046  0.1-  0.5+    980927 071  1.5+  0.2+
980714 046  0.6-  0.1+    980806 954  0.9+  0.1-    980927 071  0.6+  0.1+
980714 046  0.2-  0.1+    980806 954  0.7+  0.0     980927 071  0.8+  0.4+
980714 046  0.7-  0.3-    980806 954  0.5+  0.0     980927 071  0.4+  0.4+
980714 046  0.4-  0.2-    980807 954  0.0   0.1-    980927 071  0.2+  0.2+
980715 118  0.6-  0.4+    980807 954  0.3-  0.5-    980927 071  0.6+  0.0
980715 118  0.2-  0.0     980807 954  0.0   0.0     980927 046  0.1-  0.5-
980716 628  0.5-  0.4+    980808 628  0.0   0.8-    980927 046  0.2+  0.4+
980716 628  0.4+  0.2-    980808 143 (2.9+  3.8-)   980927 046  0.7+  1.0+
980717 046  0.6+  0.4-    980808 143 (1.1-  2.2-)   980928 704  0.5-  0.2+
980717 046  0.7+  0.4-    980808 628  0.0   0.7-    980928 704  0.5+  0.4+
980717 046  0.5+  0.3-    980808 143  1.9+  0.8-    980928 704  0.4+  1.7+
980718 402  0.3-  0.7+    980808 628  0.7-  0.2-    980928 704  0.8+  0.7+
980718 402  0.4-  0.4+    980808 628  0.8-  0.7-    980928 704  2.0-  1.0+
980718 402  0.3-  0.9+    980809 046  0.4+  0.8+    981009 046  0.0   0.1+
980719 557  0.3-  0.0     980809 046  0.3+  0.4-    981009 046  0.2+  0.4-
980719 557  0.0   0.2+    980809 046  1.0+  0.3+    981009 046  0.4+  0.7-
980719 557  0.2-  0.0     980809 046  0.2+  0.5-    981009 046  0.1-  0.2-
980719 557  0.1-  0.1+    980809 143  0.1+  1.4-    981013 557  0.3+  0.1+
980719 633  0.1-  0.5+    980809 143  0.1-  0.4+    981013 557  0.1+  0.1-
980719 633  0.3+  1.1+    980809 143  0.1+  1.3-    981019 658  0.4-  0.7+
980719 633  0.5-  0.4+    980810 758  0.4-  0.4-    981019 658  0.5-  0.2+
980719 118  0.1-  0.1+    980810 758  0.7-  1.1-    981019 658  0.4-  0.1+
980719 118  0.1+  0.0     980810 758  0.7-  0.1-    981110 360  0.2+  0.2-
980720 046  0.0   0.1-    980810 540  0.1-  0.1+    981110 360  0.5-  0.6+
980720 046  0.2-  0.0     980810 540  0.8+  0.2+    981110 360  0.6-  0.2+
980720 046  0.1-  0.1-    980810 540  0.4+  0.3+    981112 557  0.3+  0.5-
980720 046  0.2-  0.1+    980810 046  0.0   0.5-    981112 557  0.2-  0.2-
980721 118  0.4-  0.5+    980810 046  0.4+  0.3-    981112 557  0.1-  0.2-
980721 118  0.3-  0.7+    980810 046  0.1+  0.2-

Gareth V. Williams           (C) Copyright 1999 MPC           M.P.E.C. 1999-O07

Read MPEC 1999-O06 Read MPEC 1999-O08


MPEC number:

Enter an MPEC number in one of the following forms:

  • 1997-B01 (the full form)
  • J97B01 (the packed version of the full form)
  • B01 (the abbreviated form)

Valid HTML 4.01!